When you browse on this site, cookies collect data to enhance your experience and personalize the content and advertising you see.
Visit our Privacy Policy to learn more. By continuing to use the site, you agree to this use of cookies and data.
  • In Latvia
  • List of Countries
  • For 7 days
  • Water Temperature
  • Satellite Maps
  • Weather Map
  • Weather Widgets
  • user-avatar
    Login

    Hourly Weather Kalgoorlie

    Today, 19 January, Saturday

    Time Temperature Precipitation Wind Pressure Humidity
    00:00 +26°C° 0 mm 9 mps 732 mmHg 43%
    01:00 +24°C° 0 mm 8 mps 732 mmHg 47%
    02:00 +23°C° 0 mm 8 mps 732 mmHg 53%
    03:00 +22°C° 0 mm 8 mps 732 mmHg 56%
    04:00 +22°C° 0 mm 7 mps 732 mmHg 58%
    05:00 +21°C° 0 mm 6 mps 732 mmHg 61%
    06:00 +22°C° 0 mm 6 mps 732 mmHg 57%
    07:00 +24°C° 0 mm 6 mps 733 mmHg 54%
    08:00 +26°C° 0 mm 6 mps 733 mmHg 49%
    09:00 +28°C° 0 mm 6 mps 733 mmHg 43%
    10:00 +30°C° 0 mm 6 mps 733 mmHg 37%
    11:00 +33°C° 0 mm 6 mps 732 mmHg 32%
    12:00 +34°C° 0 mm 6 mps 732 mmHg 29%
    13:00 +35°C° 0 mm 5 mps 731 mmHg 26%
    14:00 +36°C° 0 mm 5 mps 731 mmHg 23%
    15:00 +37°C° 0 mm 5 mps 731 mmHg 22%
    16:00 +37°C° 0 mm 5 mps 731 mmHg 20%
    17:00 +37°C° 0 mm 5 mps 730 mmHg 19%
    18:00 +36°C° 0 mm 5 mps 731 mmHg 20%
    19:00 +36°C° 0 mm 5 mps 731 mmHg 21%
    20:00 +35°C° 0 mm 5 mps 731 mmHg 22%
    21:00 +34°C° 0 mm 5 mps 731 mmHg 24%
    22:00 +33°C° 0 mm 5 mps 731 mmHg 26%
    23:00 +33°C° 0 mm 5 mps 731 mmHg 27%

    Tomorrow, 20 January, Sunday

    Time Temperature Precipitation Wind Pressure Humidity
    00:00 +32°C° 0 mm 5 mps 731 mmHg 29%
    01:00 +30°C° 0 mm 5 mps 731 mmHg 31%
    02:00 +30°C° 0 mm 6 mps 731 mmHg 33%
    03:00 +29°C° 0 mm 5 mps 731 mmHg 35%
    04:00 +28°C° 0 mm 5 mps 731 mmHg 37%
    05:00 +27°C° 0 mm 5 mps 731 mmHg 40%
    06:00 +29°C° 0 mm 5 mps 731 mmHg 39%
    07:00 +30°C° 0 mm 6 mps 731 mmHg 38%
    08:00 +33°C° 0 mm 6 mps 732 mmHg 37%
    09:00 +34°C° 0 mm 6 mps 732 mmHg 31%
    10:00 +36°C° 0 mm 5 mps 731 mmHg 26%
    11:00 +37°C° 0 mm 5 mps 731 mmHg 20%
    12:00 +39°C° 0 mm 5 mps 730 mmHg 19%
    13:00 +40°C° 0 mm 4 mps 730 mmHg 17%
    14:00 +40°C° 0 mm 4 mps 729 mmHg 16%
    15:00 +41°C° 0 mm 4 mps 729 mmHg 16%
    16:00 +41°C° 0 mm 4 mps 729 mmHg 15%
    17:00 +40°C° 0 mm 3 mps 729 mmHg 15%
    18:00 +39°C° 0 mm 3 mps 729 mmHg 17%
    19:00 +38°C° 0 mm 3 mps 729 mmHg 18%
    20:00 +38°C° 0 mm 3 mps 729 mmHg 20%
    21:00 +37°C° 0 mm 4 mps 729 mmHg 22%
    22:00 +36°C° 0 mm 4 mps 729 mmHg 24%
    23:00 +36°C° 0 mm 5 mps 729 mmHg 26%

    Day after tomorrow, 21 January, Monday

    Time Temperature Precipitation Wind Pressure Humidity
    00:00 +35°C° 0 mm 5 mps 729 mmHg 28%
    01:00 +34°C° 0 mm 5 mps 728 mmHg 29%
    02:00 +34°C° 0 mm 5 mps 728 mmHg 30%
    03:00 +33°C° 0 mm 5 mps 728 mmHg 32%
    04:00 +33°C° 0 mm 5 mps 728 mmHg 34%
    05:00 +32°C° 0 mm 5 mps 728 mmHg 36%
    06:00 +33°C° 0 mm 6 mps 728 mmHg 34%
    07:00 +35°C° 0 mm 6 mps 728 mmHg 31%
    08:00 +36°C° 0 mm 7 mps 728 mmHg 28%
    09:00 +39°C° 0 mm 6 mps 728 mmHg 25%
    10:00 +40°C° 0 mm 5 mps 728 mmHg 21%
    11:00 +42°C° 0 mm 4 mps 727 mmHg 18%
    12:00 +42°C° 0 mm 3 mps 727 mmHg 16%
    13:00 +43°C° 0 mm 3 mps 726 mmHg 14%
    14:00 +44°C° 0 mm 3 mps 726 mmHg 13%
    15:00 +43°C° 0 mm 2 mps 725 mmHg 12%
    16:00 +43°C° 0 mm 2 mps 725 mmHg 12%
    17:00 +45°C° 0 mm 2 mps 724 mmHg 12%
    18:00 +43°C° 0 mm 2 mps 724 mmHg 12%
    19:00 +43°C° 0 mm 3 mps 724 mmHg 13%
    20:00 +42°C° 0 mm 3 mps 724 mmHg 14%
    21:00 +41°C° 0 mm 4 mps 724 mmHg 15%
    22:00 +41°C° 0 mm 4 mps 724 mmHg 16%
    23:00 +40°C° 0 mm 5 mps 724 mmHg 17%

    22 January, Tuesday

    Time Temperature Precipitation Wind Pressure Humidity
    00:00 +39°C° 0 mm 6 mps 724 mmHg 18%
    01:00 +39°C° 0 mm 7 mps 723 mmHg 20%
    02:00 +38°C° 0 mm 7 mps 723 mmHg 21%
    03:00 +36°C° 0 mm 7 mps 723 mmHg 22%
    04:00 +36°C° 0 mm 6 mps 722 mmHg 22%
    05:00 +35°C° 0 mm 6 mps 722 mmHg 23%
    06:00 +38°C° 0 mm 7 mps 723 mmHg 22%
    07:00 +39°C° 0 mm 8 mps 723 mmHg 22%
    08:00 +40°C° 0 mm 9 mps 723 mmHg 21%
    09:00 +43°C° 0 mm 9 mps 723 mmHg 18%
    10:00 +45°C° 0 mm 8 mps 722 mmHg 15%
    11:00 +48°C° 0 mm 8 mps 722 mmHg 12%
    12:00 +49°C° 0 mm 8 mps 721 mmHg 11%
    13:00 +49°C° 0 mm 8 mps 720 mmHg 11%
    14:00 +50°C° 0 mm 8 mps 720 mmHg 10%
    15:00 +48°C° 0 mm 8 mps 720 mmHg 14%
    16:00 +45°C° 0 mm 8 mps 719 mmHg 19%
    17:00 +41°C° 0 mm 8 mps 719 mmHg 23%
    18:00 +39°C° 0.5 mm 7 mps 720 mmHg 29%
    19:00 +36°C° 0.5 mm 6 mps 721 mmHg 36%
    20:00 +34°C° 0.5 mm 5 mps 721 mmHg 42%
    21:00 +33°C° 0.1 mm 4 mps 721 mmHg 46%
    22:00 +32°C° 0.1 mm 4 mps 721 mmHg 51%
    23:00 +29°C° 0.1 mm 4 mps 721 mmHg 55%

    23 January, Wednesday

    Time Temperature Precipitation Wind Pressure Humidity
    00:00 +29°C° 0 mm 3 mps 720 mmHg 57%
    01:00 +28°C° 0 mm 3 mps 720 mmHg 58%
    02:00 +28°C° 0 mm 2 mps 720 mmHg 60%
    03:00 +27°C° 0 mm 3 mps 720 mmHg 62%
    04:00 +27°C° 0 mm 3 mps 720 mmHg 63%
    05:00 +27°C° 0 mm 4 mps 721 mmHg 64%
    06:00 +27°C° 0 mm 5 mps 721 mmHg 58%
    07:00 +27°C° 0 mm 6 mps 721 mmHg 52%
    08:00 +27°C° 0 mm 7 mps 722 mmHg 45%
    09:00 +29°C° 0 mm 8 mps 722 mmHg 39%
    10:00 +31°C° 0 mm 8 mps 722 mmHg 33%
    11:00 +33°C° 0 mm 8 mps 722 mmHg 28%
    12:00 +34°C° 0 mm 9 mps 722 mmHg 24%
    13:00 +34°C° 0 mm 9 mps 721 mmHg 21%
    14:00 +36°C° 0 mm 10 mps 721 mmHg 18%
    15:00 +34°C° 0 mm 10 mps 721 mmHg 17%
    16:00 +33°C° 0 mm 11 mps 721 mmHg 16%
    17:00 +32°C° 0 mm 11 mps 722 mmHg 15%
    18:00 +31°C° 0 mm 10 mps 722 mmHg 16%
    19:00 +28°C° 0 mm 10 mps 723 mmHg 17%
    20:00 +27°C° 0 mm 10 mps 723 mmHg 18%
    21:00 +24°C° 0 mm 10 mps 724 mmHg 23%
    22:00 +22°C° 0 mm 10 mps 724 mmHg 28%
    23:00 +21°C° 0 mm 10 mps 724 mmHg 33%

    24 January, Thursday

    Time Temperature Precipitation Wind Pressure Humidity
    00:00 +19°C° 0 mm 10 mps 724 mmHg 37%
    01:00 +18°C° 0 mm 9 mps 724 mmHg 40%
    02:00 +17°C° 0 mm 9 mps 724 mmHg 44%
    03:00 +16°C° 0 mm 8 mps 724 mmHg 49%
    04:00 +15°C° 0 mm 8 mps 725 mmHg 53%
    05:00 +15°C° 0 mm 7 mps 725 mmHg 58%
    06:00 +16°C° 0 mm 7 mps 725 mmHg 56%
    07:00 +17°C° 0 mm 7 mps 726 mmHg 54%
    08:00 +17°C° 0 mm 7 mps 727 mmHg 53%
    09:00 +20°C° 0 mm 7 mps 727 mmHg 48%
    10:00 +22°C° 0 mm 7 mps 727 mmHg 44%
    11:00 +23°C° 0 mm 7 mps 727 mmHg 40%
    12:00 +26°C° 0 mm 7 mps 726 mmHg 36%
    13:00 +27°C° 0 mm 7 mps 726 mmHg 33%
    14:00 +28°C° 0 mm 6 mps 726 mmHg 29%
    15:00 +29°C° 0 mm 6 mps 726 mmHg 28%
    16:00 +29°C° 0 mm 7 mps 726 mmHg 27%
    17:00 +30°C° 0 mm 7 mps 726 mmHg 26%
    18:00 +28°C° 0 mm 7 mps 727 mmHg 31%
    19:00 +26°C° 0 mm 8 mps 727 mmHg 35%
    20:00 +24°C° 0 mm 8 mps 728 mmHg 40%
    21:00 +22°C° 0 mm 8 mps 728 mmHg 45%
    22:00 +21°C° 0 mm 8 mps 728 mmHg 50%
    23:00 +20°C° 0 mm 8 mps 729 mmHg 55%
    Show more